[[{"header":{"parameterUnit":"m.s-1","parameterCategory":1,"la1":30.2991,"la2":30.254,"lo1":-89.0895,"lo2":-89.0444,"dy":0.0017,"dx":0.0017,"nx":28,"ny":28,"refTime":"2025-02-24T09:00:00:Z","depth":0,"parameterNumber":2,"parameterNumberName":"U-component_of_WINDS"},"data":[0,0,0,0,0,0,0,0,0,0,0,0,0,0,0,0,0,0,0,0,0,0,0,0,0,0,0,0,0,0,0,0,0,0,0,0,0,0,0,0,0,0,0,0,0,0,0,0,0,0,0,0,0,0,0,0,0,0,-0.0911,-0.0912,0,-0.1027,-0.1028,-0.103,-0.1076,-0.1075,-0.1075,-0.1075,-0.1196,-0.1199,-0.1203,0,0,0,0,0,0,0,0,0,0,0,0,0,-0.0731,-0.0734,-0.0911,-0.0912,-0.0914,-0.1027,-0.1028,-0.103,-0.1076,-0.1075,-0.1075,-0.1075,-0.1195,-0.1199,-0.1203,0,0,0,0,0,0,0,0,0,0,0,0,0,-0.0824,-0.0735,-0.0911,-0.095,-0.0955,-0.1026,-0.1028,-0.103,-0.1076,-0.1075,-0.1075,-0.1074,-0.1193,-0.1199,-0.1204,-0.1246,0,0,-0.122,-0.1222,0,0,0,0,0,0,0,0,-0.0819,-0.0831,-0.0943,-0.0948,-0.0953,-0.1036,-0.1009,-0.1103,-0.1076,-0.103,-0.1075,-0.1074,-0.1143,-0.1153,-0.1176,-0.1251,-0.1256,-0.122,-0.1224,-0.1226,-0.1227,0,0,0,0,0,0,0,-0.0812,-0.0826,-0.0957,-0.0945,-0.0951,-0.0963,-0.0975,-0.1027,-0.1088,-0.1034,-0.1037,-0.105,-0.1146,-0.117,-0.1179,-0.1258,-0.122,-0.1225,-0.1228,-0.123,-0.1374,-0.1374,0,0,0,0,0,0,-0.0799,-0.082,-0.0953,-0.096,-0.0883,-0.0966,-0.0981,-0.101,-0.1087,-0.1099,-0.1051,-0.1052,-0.1162,-0.1173,-0.1183,-0.1238,-0.1226,-0.1231,-0.1234,-0.1373,-0.1374,-0.1374,0,0,0,0,0,0,-0.0795,-0.081,-0.0949,-0.0891,-0.091,-0.097,-0.1003,-0.1013,-0.1037,-0.11,-0.1111,-0.1064,-0.1162,-0.1176,-0.1229,-0.1243,-0.1233,-0.1238,-0.1372,-0.1373,-0.1374,-0.1346,0,0,0,0,0,0,-0.0789,-0.0809,-0.0825,-0.0891,-0.0913,-0.0992,-0.1003,-0.1015,-0.1046,-0.1049,-0.1116,-0.1127,-0.1162,-0.1221,-0.1235,-0.125,-0.1242,-0.1371,-0.1373,-0.1374,-0.1346,-0.1346,-0.1346,0,0,0,0,0,-0.0783,-0.0813,-0.0825,-0.0841,-0.0934,-0.0993,-0.1005,-0.1045,-0.1046,-0.1064,-0.1104,-0.1125,-0.1238,-0.1226,-0.1242,-0.1259,-0.1371,-0.1372,-0.1374,-0.1347,-0.1346,-0.1346,0,0,0,0,0,0,-0.0748,-0.0823,-0.0837,-0.089,-0.0934,-0.1001,-0.1024,-0.1044,-0.109,-0.1091,-0.1139,-0.1154,-0.1204,-0.1236,-0.1222,-0.1303,-0.1306,-0.1311,-0.128,-0.128,-0.128,-0.1272,-0.1246,0,0,0,0,0,-0.0746,-0.0787,-0.085,-0.089,-0.0912,-0.0963,-0.0991,-0.1017,-0.1066,-0.1086,-0.113,-0.1177,-0.1224,-0.1254,-0.13,-0.135,-0.1366,-0.1369,-0.1369,-0.1369,-0.1373,-0.1402,-0.1405,-0.1379,-0.1379,-0.1379,0,0,-0.0743,-0.0789,-0.0812,-0.0884,-0.0922,-0.0964,-0.098,-0.1023,-0.1055,-0.1093,-0.1146,-0.118,-0.1236,-0.1288,-0.1313,-0.1317,-0.1383,-0.1371,-0.137,-0.1374,-0.1404,-0.1406,-0.1409,-0.138,-0.138,-0.138,0,0,-0.076,-0.0798,-0.0836,-0.0873,-0.093,-0.0964,-0.0972,-0.1035,-0.1059,-0.1113,-0.1142,-0.118,-0.1259,-0.1298,-0.1328,-0.1356,-0.1378,-0.137,-0.137,-0.1398,-0.14,-0.1402,-0.1414,-0.1417,-0.1373,-0.1373,-0.1373,0,-0.075,-0.0814,-0.0853,-0.0895,-0.0926,-0.096,-0.0999,-0.1033,-0.1103,-0.1124,-0.1126,-0.1225,-0.1265,-0.1327,-0.1334,-0.1356,-0.1369,-0.1364,-0.1397,-0.1399,-0.1402,-0.1413,-0.1417,-0.1372,-0.1372,-0.1373,-0.1373,0,-0.0798,-0.0842,-0.0866,-0.0931,-0.0964,-0.1004,-0.105,-0.1079,-0.1102,-0.1136,-0.119,-0.1239,-0.1295,-0.1311,-0.1335,-0.1377,-0.1377,-0.1387,-0.1392,-0.1402,-0.1414,-0.1418,-0.1371,-0.1371,-0.1371,-0.1372,0,0,-0.0799,-0.0883,-0.0892,-0.0921,-0.0985,-0.102,-0.1061,-0.1116,-0.114,-0.1186,-0.1223,-0.1287,-0.1297,-0.1331,-0.1358,-0.1383,-0.1403,-0.139,-0.1392,-0.1392,-0.1453,-0.1447,-0.1451,-0.1416,-0.1417,-0.1418,-0.1449,0,-0.0826,-0.0901,-0.0937,-0.0997,-0.1038,-0.1069,-0.1105,-0.1149,-0.118,-0.122,-0.1256,-0.1301,-0.131,-0.1331,-0.1356,-0.1395,-0.1417,-0.1393,-0.1452,-0.1454,-0.1439,-0.1457,-0.145,-0.1477,-0.1454,-0.1454,-0.1455,0,-0.0867,-0.0912,-0.0975,-0.1034,-0.1052,-0.1084,-0.1136,-0.1173,-0.1223,-0.1244,-0.1281,-0.1307,-0.1352,-0.1352,-0.1415,-0.1398,-0.1424,-0.1447,-0.1449,-0.1458,-0.1457,-0.1468,-0.1487,-0.1491,-0.1462,-0.1462,-0.1461,0,-0.0863,-0.0938,-0.0986,-0.101,-0.1079,-0.1101,-0.1131,-0.118,-0.121,-0.1255,-0.1275,-0.1325,-0.1354,-0.1392,-0.1431,-0.1427,-0.1491,-0.1494,-0.1511,-0.151,-0.1526,-0.1524,-0.1551,-0.1539,-0.1538,-0.1538,-0.1538,0,-0.089,-0.0928,-0.0985,-0.1015,-0.1058,-0.1098,-0.114,-0.1173,-0.1216,-0.1252,-0.1282,-0.1316,-0.1365,-0.1405,-0.1436,-0.1484,-0.1496,-0.1516,-0.1524,-0.1514,-0.1512,-0.1534,-0.1534,-0.154,-0.1539,-0.1539,-0.1539,0,-0.0894,-0.0933,-0.0988,-0.1048,-0.1063,-0.1093,-0.1145,-0.1175,-0.1207,-0.1253,-0.1266,-0.1317,-0.1366,-0.1408,-0.1473,-0.1493,-0.1544,-0.1552,-0.1527,-0.1531,-0.1547,-0.1546,-0.159,-0.1598,-0.1578,-0.1579,-0.1579,0,-0.091,-0.0939,-0.1002,-0.1028,-0.1057,-0.1099,-0.1129,-0.1169,-0.12,-0.1257,-0.1281,-0.1331,-0.1374,-0.145,-0.1494,-0.1543,-0.1555,-0.1566,-0.1562,-0.1552,-0.1557,-0.1555,-0.1559,-0.1567,-0.1567,-0.1567,-0.1567,0,-0.0934,-0.0951,-0.0994,-0.1042,-0.1077,-0.1117,-0.1159,-0.1179,-0.1226,-0.1259,-0.1309,-0.1341,-0.1406,-0.1457,-0.151,-0.1542,-0.1563,-0.1568,-0.1575,-0.1567,-0.1551,-0.1561,-0.1529,-0.1567,-0.1567,-0.1567,-0.1567,-0.1567,-0.0946,-0.0973,-0.1021,-0.1067,-0.1102,-0.1139,-0.117,-0.1206,-0.1247,-0.1303,-0.1324,-0.1374,-0.1422,-0.1496,-0.1527,-0.1568,-0.1572,-0.1582,-0.1584,-0.1587,-0.1586,-0.1542,-0.1578,-0.1578,-0.1578,-0.1578,-0.1578,0,-0.0973,-0.1004,-0.1046,-0.1102,-0.1138,-0.1152,-0.1198,-0.1228,-0.1271,-0.1314,-0.1354,-0.1411,-0.1459,-0.1505,-0.1556,-0.158,-0.1591,-0.1592,-0.1592,-0.1599,-0.1579,-0.1569,-0.1582,-0.1582,-0.1582,-0.1582,-0.1582,-0.1582,-0.0991,-0.1039,-0.1062,-0.1128,-0.1159,-0.1209,-0.1234,-0.1269,-0.1302,-0.1364,-0.1404,-0.1433,-0.1477,-0.153,-0.1575,-0.1588,-0.1606,-0.1605,-0.162,-0.1601,-0.16,-0.16,-0.159,-0.1608,-0.1608,-0.1637,-0.1637,-0.1637]},{"header":{"parameterUnit":"m.s-1","parameterCategory":1,"la1":30.2991,"la2":30.254,"lo1":-89.0895,"lo2":-89.0444,"dy":0.0017,"dx":0.0017,"nx":28,"ny":28,"refTime":"2025-02-24T09:00:00:Z","depth":0,"parameterNumber":3,"parameterNumberName":"V-component_of_WINDS"},"data":[0,0,0,0,0,0,0,0,0,0,0,0,0,0,0,0,0,0,0,0,0,0,0,0,0,0,0,0,0,0,0,0,0,0,0,0,0,0,0,0,0,0,0,0,0,0,0,0,0,0,0,0,0,0,0,0,0,0,-4.7569,-4.7568,0,-4.7476,-4.7475,-4.7474,-4.7362,-4.736,-4.7359,-4.7357,-4.7257,-4.7256,-4.7255,0,0,0,0,0,0,0,0,0,0,0,0,0,-4.7649,-4.7648,-4.7569,-4.7568,-4.7567,-4.7476,-4.7475,-4.7473,-4.7362,-4.736,-4.7358,-4.7356,-4.7258,-4.7256,-4.7255,0,0,0,0,0,0,0,0,0,0,0,0,0,-4.7591,-4.7648,-4.7569,-4.7501,-4.7494,-4.7476,-4.7475,-4.7473,-4.7363,-4.736,-4.7358,-4.7355,-4.7258,-4.7256,-4.7255,-4.7296,0,0,-4.725,-4.7249,0,0,0,0,0,0,0,0,-4.7594,-4.7588,-4.7512,-4.7505,-4.7497,-4.7428,-4.7466,-4.7414,-4.7363,-4.7412,-4.7357,-4.7354,-4.7316,-4.7309,-4.7297,-4.7292,-4.7287,-4.725,-4.7249,-4.7248,-4.7248,0,0,0,0,0,0,0,-4.7598,-4.7591,-4.7532,-4.7511,-4.7502,-4.7474,-4.7462,-4.7455,-4.7379,-4.7408,-4.74,-4.739,-4.7311,-4.7299,-4.7294,-4.7286,-4.725,-4.7248,-4.7247,-4.7247,-4.7311,-4.7313,0,0,0,0,0,0,-4.7613,-4.7595,-4.7535,-4.7529,-4.7541,-4.7474,-4.7462,-4.7453,-4.7379,-4.7366,-4.7393,-4.7385,-4.7303,-4.7296,-4.729,-4.7335,-4.7248,-4.7247,-4.7246,-4.7308,-4.7312,-4.7314,0,0,0,0,0,0,-4.7615,-4.7609,-4.7539,-4.756,-4.7549,-4.7476,-4.7466,-4.7452,-4.744,-4.7368,-4.7353,-4.7394,-4.7301,-4.7292,-4.7296,-4.733,-4.7246,-4.7244,-4.7305,-4.7309,-4.7313,-4.7425,0,0,0,0,0,0,-4.7618,-4.761,-4.7626,-4.7561,-4.7548,-4.7548,-4.7468,-4.7452,-4.7438,-4.7428,-4.7365,-4.7353,-4.7298,-4.7299,-4.7295,-4.7326,-4.7243,-4.7302,-4.7307,-4.7312,-4.7418,-4.7433,-4.7445,0,0,0,0,0,-4.7621,-4.766,-4.7627,-4.7621,-4.7566,-4.755,-4.7542,-4.748,-4.7441,-4.7456,-4.741,-4.7355,-4.7327,-4.7301,-4.7294,-4.7326,-4.7299,-4.7306,-4.7311,-4.7412,-4.743,-4.7445,0,0,0,0,0,0,-4.7729,-4.765,-4.7613,-4.7632,-4.7599,-4.7531,-4.7548,-4.75,-4.7476,-4.7467,-4.739,-4.7377,-4.739,-4.7358,-4.733,-4.7363,-4.7305,-4.731,-4.7384,-4.74,-4.7413,-4.7421,-4.7242,0,0,0,0,0,-4.7755,-4.7749,-4.768,-4.7703,-4.7689,-4.7622,-4.7612,-4.7567,-4.7529,-4.7514,-4.7468,-4.7432,-4.7415,-4.7405,-4.7386,-4.7413,-4.7398,-4.7432,-4.7445,-4.7456,-4.7462,-4.7476,-4.749,-4.7334,-4.7334,-4.7334,0,0,-4.7808,-4.7765,-4.7765,-4.7724,-4.7693,-4.7688,-4.761,-4.7608,-4.7604,-4.7513,-4.7515,-4.748,-4.7434,-4.7451,-4.7455,-4.7424,-4.7502,-4.7464,-4.7474,-4.7473,-4.7483,-4.7498,-4.7511,-4.7338,-4.7337,-4.7337,0,0,-4.7904,-4.787,-4.7887,-4.7858,-4.7812,-4.7767,-4.7772,-4.7712,-4.7686,-4.7687,-4.7619,-4.7612,-4.7584,-4.7555,-4.7537,-4.7624,-4.7573,-4.7619,-4.7689,-4.7704,-4.7716,-4.7727,-4.7759,-4.7771,-4.7625,-4.7625,-4.7625,0,-4.7976,-4.7967,-4.7901,-4.7904,-4.7888,-4.7807,-4.7824,-4.7798,-4.7748,-4.7739,-4.7705,-4.7671,-4.7634,-4.7643,-4.7665,-4.7652,-4.7655,-4.7626,-4.772,-4.773,-4.7738,-4.7769,-4.7781,-4.7631,-4.7631,-4.763,-4.7629,0,-4.8058,-4.8053,-4.8072,-4.8029,-4.8014,-4.8024,-4.7959,-4.7953,-4.791,-4.7869,-4.7871,-4.7825,-4.7796,-4.7794,-4.775,-4.7798,-4.778,-4.7734,-4.7674,-4.7761,-4.7788,-4.7799,-4.764,-4.7638,-4.7636,-4.7634,0,0,-4.8218,-4.8139,-4.8148,-4.8128,-4.8072,-4.8067,-4.8073,-4.8046,-4.8043,-4.8011,-4.8015,-4.7994,-4.7952,-4.7932,-4.7884,-4.7897,-4.7971,-4.7849,-4.7847,-4.7875,-4.8021,-4.8058,-4.8072,-4.7936,-4.7938,-4.7939,-4.8026,0,-4.8305,-4.8312,-4.8254,-4.8277,-4.8272,-4.8196,-4.8201,-4.8168,-4.813,-4.812,-4.8076,-4.8064,-4.8009,-4.7996,-4.8005,-4.796,-4.7999,-4.7952,-4.7939,-4.7939,-4.7954,-4.8086,-4.8124,-4.8208,-4.8036,-4.8038,-4.8039,0,-4.8406,-4.8383,-4.8407,-4.8352,-4.8348,-4.8354,-4.8326,-4.8317,-4.8277,-4.8249,-4.8227,-4.8174,-4.8176,-4.8119,-4.8121,-4.809,-4.8081,-4.8058,-4.806,-4.8057,-4.7995,-4.8088,-4.8232,-4.8246,-4.8054,-4.8053,-4.8052,0,-4.8523,-4.8497,-4.8508,-4.8493,-4.8429,-4.8436,-4.8409,-4.8367,-4.8356,-4.833,-4.8322,-4.8297,-4.8283,-4.8265,-4.8206,-4.8169,-4.8215,-4.8153,-4.8192,-4.8194,-4.8205,-4.8206,-4.8352,-4.8198,-4.8197,-4.8197,-4.8197,0,-4.8627,-4.8644,-4.856,-4.8567,-4.8585,-4.8517,-4.8537,-4.8502,-4.8466,-4.8465,-4.8396,-4.8397,-4.8318,-4.831,-4.8263,-4.8273,-4.8267,-4.8244,-4.8232,-4.8251,-4.8254,-4.8245,-4.8238,-4.82,-4.82,-4.8199,-4.8199,0,-4.876,-4.8705,-4.8712,-4.8652,-4.8637,-4.8653,-4.8601,-4.8605,-4.8563,-4.8563,-4.8559,-4.8493,-4.8479,-4.8419,-4.839,-4.8359,-4.8385,-4.8359,-4.8399,-4.8391,-4.8435,-4.8432,-4.8581,-4.8598,-4.8432,-4.8433,-4.8435,0,-4.8831,-4.8843,-4.8785,-4.878,-4.8757,-4.875,-4.8738,-4.8672,-4.8662,-4.862,-4.8629,-4.8611,-4.8592,-4.8574,-4.8523,-4.8501,-4.8476,-4.853,-4.8472,-4.8492,-4.8479,-4.848,-4.8481,-4.8543,-4.8545,-4.8546,-4.8548,0,-4.8962,-4.8934,-4.8921,-4.8899,-4.8887,-4.8866,-4.884,-4.884,-4.8766,-4.8759,-4.8746,-4.8732,-4.8704,-4.8687,-4.8657,-4.8628,-4.8577,-4.8567,-4.8575,-4.8595,-4.8619,-4.8608,-4.8435,-4.8563,-4.8562,-4.8561,-4.856,-4.8559,-4.9067,-4.9075,-4.9036,-4.9024,-4.8998,-4.8977,-4.8978,-4.8938,-4.8926,-4.8899,-4.886,-4.8853,-4.8814,-4.8769,-4.8744,-4.8737,-4.8707,-4.8719,-4.8722,-4.8726,-4.8737,-4.8619,-4.8731,-4.873,-4.873,-4.8729,-4.8729,0,-4.9196,-4.9168,-4.9157,-4.9125,-4.9116,-4.9069,-4.9039,-4.9034,-4.9029,-4.8997,-4.8982,-4.8967,-4.895,-4.8899,-4.8877,-4.8881,-4.8857,-4.8878,-4.8878,-4.8872,-4.8763,-4.876,-4.8898,-4.8898,-4.8898,-4.8898,-4.8898,-4.8898,-4.9262,-4.9275,-4.9243,-4.9242,-4.9212,-4.9206,-4.9193,-4.9173,-4.9148,-4.9135,-4.9122,-4.9089,-4.905,-4.9025,-4.9008,-4.8993,-4.8989,-4.9019,-4.8996,-4.8896,-4.888,-4.8864,-4.886,-4.9018,-4.9018,-4.9106,-4.9106,-4.9107]}]]